CZ-4 DEB, 26134

Orbit data source: Space-Track

CZ-4 DEB, 26134 is space debris in SSO originally from a launch on Thu, 14 Oct 1999 UTC launched from the Taiyaun Space Center, China (TSC). Debris objects in space refer to the collection of defunct objects orbiting the Earth. Examples of debris include non-operational satellites, rocket bodies, and fragments generated from explosions, collisions, or faulty payload assembly.

Loading next visibility...
Identifier
26134, 1999-057W
Orbit
SSO
Country
Flag of CNCN / PRC
Related business
Manufacturer
Unknown
Mission
Spacecraft
Bus & Motor
Unknown
Mass
Unknown
Launch date (UTC)
1999-10-14 (26 years ago)
Launch vehicle
Unknown
Launch site
Taiyaun Space Center, China (TSC)
Object type
Payload
Rocket body
Debris
Shape & HBR
Unknown shape, 0.1 m
Radar Cross Section
Small (<0.1 m²)

Expand to show TLE details & history
Last TLE update: 19 hours ago

TLE from 19 hours ago
0 CZ-4 DEB
1 26134U 99057W   25349.45855096  .00000927  00000-0  64136-3 0  9992
2 26134  98.9494 155.7773 0419515  91.4368 332.3915 13.65774164276007
Epoch: 2025-12-15T11:00Z
TLE epoch observation values (Epoch: 2025-12-15T11:00:18.802Z)
Latitude
60.332°
Longitude
-109.61752°
Altitude
753.068 km
Speed
7.62 km/s
True Right ascension
09h 19m 16s
True Declination
60° 11' 02"
Sunlit
Object was in full shadow at epoch
Visualization orbit readout
Latitude
Unknown
Longitude
Unknown
Altitude
Unknown
Speed
Unknown
Apparent Right ascension
Unknown
Apparent Declination
Unknown
Sunlit
N/A
Visualization observer readout
Local Sidereal Time
04:21:36
Azimuth
Unknown
Elevation
Unknown
Doppler factor
Unknown
Orbital elements
Apogee altitude
1,322.045 km
Perigee altitude
701.989 km
Semi-major axis
7,390.154 km
Eccentricity
0.04195
Inclination
98.9494°
RAAN
155.7773°
Arg. of periapsis
91.4368°
True anomaly
330.05598°
Mean anomaly
332.3915°
Eccentric anomaly
331.23482°
Mean motion
3.41635 °/min
Orbital period
105.38 mins
BSTAR
0.00064136
Loading maneuver chart data...
Computing Atmospheric mass density...
Loading historical data...
Loading historical data...
Loading historical data...
Loading historical data...
Loading historical data...
Loading historical data...
Loading historical data...

Documentation

Showing up to 5 results
|